FW4540 Weather Reports


Display with metric or nautical units.
time (UTC)temp
F
wind
direction
speed
MPH
gust
MPH
rain 1hr
in
rain 24hr
in
rain mn
in
humidity
%
barometer
mb
20260905154010 81 45 3.0 7.0 0.00 0.00 0.00 58 22.0
20260905153010 82 45 3.0 9.0 0.00 0.00 0.00 58 22.1
20260905152010 83 45 3.0 8.0 0.00 0.00 0.00 56 22.2
20260905151013 83 22 2.0 8.0 0.00 0.00 0.00 56 22.1
20260905150010 83 22 4.0 10.0 0.00 0.00 0.00 56 22.0
20260905145010 83 22 2.0 8.0 0.00 0.00 0.00 55 22.1
20260905143011 83 45 3.0 10.0 0.00 0.00 0.00 56 22.1
20260905142010 83 45 4.0 10.0 0.00 0.00 0.00 56 22.1
20260905141010 85 337 2.0 5.0 0.00 0.00 0.00 55 22.1
20260905140010 84 270 3.0 6.0 0.00 0.00 0.00 53 22.1
20260905134010 85 270 2.0 7.0 0.00 0.00 0.00 51 22.1
20260905133010 84 270 1.0 4.0 0.00 0.00 0.00 53 22.2
20260905132010 82 360 1.0 4.0 0.00 0.00 0.00 54 22.4
20260905131010 81 360 1.0 3.0 0.00 0.00 0.00 55 22.4
20260905130010 82 360 0.0 2.0 0.00 0.00 0.00 53 22.3
20260905124010 86 360 1.0 8.0 0.00 0.00 0.00 48 22.1
20260905123010 83 225 3.0 11.0 0.00 0.00 0.00 50 22.1
20260905122010 84 270 1.0 6.0 0.00 0.00 0.00 50 22.1
20260905120010 83 225 1.0 9.0 0.00 0.00 0.00 53 22.2
20260905114010 82 45 1.0 4.0 0.00 0.00 0.00 52 22.2
20260905113010 82 292 0.0 3.0 0.00 0.00 0.00 54 22.4
20260905112011 82 292 0.0 3.0 0.00 0.00 0.00 55 22.4
20260905111011 82 270 1.0 4.0 0.00 0.00 0.00 55 22.4
20260905110010 83 247 1.0 6.0 0.00 0.00 0.00 55 22.5
20260905105010 81 292 1.0 4.0 0.00 0.00 0.00 57 22.5
20260905104009 82 270 2.0 6.0 0.00 0.00 0.00 57 22.5
20260905103010 80 225 3.0 7.0 0.00 0.00 0.00 59 22.5
20260905102009 80 225 2.0 8.0 0.00 0.00 0.00 59 22.5
20260905100010 80 135 2.0 9.0 0.00 0.00 0.00 60 22.7
20260905095010 80 270 3.0 7.0 0.00 0.00 0.00 58 22.7
20260905093009 79 225 4.0 8.0 0.00 0.00 0.00 60 22.6
20260905092009 79 247 2.0 5.0 0.00 0.00 0.00 60 22.5
20260905091010 79 270 2.0 8.0 0.00 0.00 0.00 61 22.6
20260905090010 79 337 1.0 4.0 0.00 0.00 0.00 62 22.6
20260905085009 76 45 2.0 4.0 0.00 0.00 0.00 65 22.6
20260905084009 77 45 2.0 5.0 0.00 0.00 0.00 66 22.5
20260905083010 76 292 0.0 3.0 0.00 0.00 0.00 65 22.4
20260905082009 75 292 0.0 1.0 0.00 0.00 0.00 66 22.4
20260905081009 76 292 0.0 1.0 0.00 0.00 0.00 67 22.4
20260905080010 75 292 1.0 3.0 0.00 0.00 0.00 66 22.3
20260905074009 74 292 0.0 4.0 0.00 0.00 0.00 66 22.1
20260905073009 73 315 0.0 2.0 0.00 0.00 0.00 66 22.1
20260905071009 71 270 0.0 2.0 0.00 0.00 0.00 67 22.0
20260905070010 69 270 0.0 1.0 0.00 0.00 0.00 69 21.9
20260905065009 68 0 0.0 0.0 0.00 0.00 0.00 71 21.8
20260905064009 67 0 0.0 0.0 0.00 0.00 0.00 73 21.7
20260905063009 66 0 0.0 0.0 0.00 0.00 0.00 76 21.8
20260905062009 66 270 0.0 1.0 0.00 0.00 0.00 76 21.7
20260905061009 65 0 0.0 0.0 0.00 0.00 0.00 79 21.5
20260905060010 64 0 0.0 0.0 0.00 0.00 0.00 82 21.4
20260905055009 63 0 0.0 0.0 0.00 0.00 0.00 82 21.2
20260905054009 63 0 0.0 0.0 0.00 0.00 0.00 82 21.0
20260905053009 62 0 0.0 0.0 0.00 0.00 0.00 85 20.8
20260905052009 62 0 0.0 0.0 0.00 0.00 0.00 83 20.7
20260905051009 62 0 0.0 0.0 0.00 0.00 0.00 82 20.6
20260905050010 63 0 0.0 0.0 0.00 0.00 0.00 82 20.5
20260905044009 63 0 0.0 0.0 0.00 0.00 0.00 83 20.3
20260905043009 62 0 0.0 0.0 0.00 0.00 0.00 83 20.4
20260905042009 62 0 0.0 0.0 0.00 0.00 0.00 83 20.3
20260905041009 62 0 0.0 0.0 0.00 0.00 0.00 83 20.2
20260905035009 61 0 0.0 0.0 0.00 0.00 0.00 84 20.3
20260905033014 60 0 0.0 0.0 0.00 0.00 0.00 84 20.4
20260905032014 62 0 0.0 0.0 0.00 0.00 0.00 82 20.3
20260905031014 61 0 0.0 0.0 0.00 0.00 0.00 83 20.4
20260905030014 60 0 0.0 0.0 0.00 0.00 0.00 83 20.3
20260905025014 61 0 0.0 0.0 0.00 0.00 0.00 81 20.3
20260905024014 61 0 0.0 0.0 0.00 0.00 0.00 81 20.1
20260905023014 61 0 0.0 0.0 0.00 0.00 0.00 80 20.1
20260905022014 61 0 0.0 0.0 0.00 0.00 0.00 81 20.0
20260905021014 60 0 0.0 0.0 0.00 0.00 0.00 81 20.0
20260905020014 62 0 0.0 0.0 0.00 0.00 0.00 78 20.0
20260905015014 63 0 0.0 0.0 0.00 0.00 0.00 77 19.8
20260905014014 62 0 0.0 0.0 0.00 0.00 0.00 78 19.8
20260905013014 61 0 0.0 0.0 0.00 0.00 0.00 78 19.7
20260905012015 64 0 0.0 0.0 0.00 0.00 0.00 75 19.7
20260905011014 64 0 0.0 0.0 0.00 0.00 0.00 75 19.6
20260905010017 63 0 0.0 0.0 0.00 0.00 0.00 75 19.6
20260905005014 64 0 0.0 0.0 0.00 0.00 0.00 74 19.7
20260905004014 63 90 0.0 3.0 0.00 0.00 0.00 73 19.7
20260905003013 65 0 0.0 0.0 0.00 0.00 0.00 71 19.7
20260905002014 65 0 0.0 0.0 0.00 0.00 0.00 70 19.6
20260905001015 64 0 0.0 0.0 0.00 0.00 0.00 71 19.6
20260905000014 66 0 0.0 0.0 0.00 0.00 0.00 67 19.6
20260904235013 67 0 0.0 0.0 0.00 0.00 0.00 65 19.5
20260904234013 68 270 0.0 1.0 0.00 0.00 0.00 64 19.4
20260904233013 68 0 0.0 0.0 0.00 0.00 0.00 63 19.5
20260904231013 69 0 0.0 0.0 0.00 0.00 0.00 59 19.1
20260904230014 69 0 0.0 0.0 0.00 0.00 0.00 60 19.1
20260904225013 69 0 0.0 0.0 0.00 0.00 0.00 62 19.0
20260904223014 70 0 0.0 0.0 0.00 0.00 0.00 62 18.6
20260904222013 72 292 0.0 3.0 0.00 0.00 0.00 57 18.3
20260904221013 73 292 0.0 2.0 0.00 0.00 0.00 56 18.3
20260904220013 72 0 0.0 0.0 0.00 0.00 0.00 58 18.3
20260904214013 74 292 0.0 2.0 0.00 0.00 0.00 56 18.0
20260904213013 74 292 1.0 3.0 0.00 0.00 0.00 57 18.0
20260904212013 73 292 1.0 4.0 0.00 0.00 0.00 58 18.0
20260904211014 74 292 0.0 2.0 0.00 0.00 0.00 58 17.9
20260904210014 75 292 1.0 3.0 0.00 0.00 0.00 56 17.7
20260904205013 75 292 1.0 3.0 0.00 0.00 0.00 57 17.7
20260904204013 76 292 1.0 3.0 0.00 0.00 0.00 55 17.7
20260904203014 77 292 2.0 3.0 0.00 0.00 0.00 54 17.6
20260904201013 77 270 1.0 3.0 0.00 0.00 0.00 55 17.4
20260904200014 77 270 0.0 1.0 0.00 0.00 0.00 55 17.1
20260904195013 77 270 0.0 1.0 0.00 0.00 0.00 54 17.0
20260904194013 78 0 0.0 0.0 0.00 0.00 0.00 53 16.8
20260904193013 78 0 0.0 0.0 0.00 0.00 0.00 53 16.7
20260904192013 77 0 0.0 0.0 0.00 0.00 0.00 53 16.6
20260904191013 82 270 1.0 3.0 0.00 0.00 0.00 47 16.7
20260904190014 81 270 1.0 2.0 0.00 0.00 0.00 48 16.5
20260904184013 83 0 0.0 0.0 0.00 0.00 0.00 45 16.2
20260904183014 83 0 0.0 0.0 0.00 0.00 0.00 44 16.1
20260904182013 84 0 0.0 0.0 0.00 0.00 0.00 44 16.0
20260904180015 86 270 1.0 2.0 0.00 0.00 0.00 40 15.7
20260904175013 87 247 1.0 3.0 0.00 0.00 0.00 39 15.7
20260904174014 89 270 3.0 6.0 0.00 0.00 0.00 38 15.6
20260904173013 89 270 2.0 5.0 0.00 0.00 0.00 37 15.6
20260904172013 90 270 3.0 7.0 0.00 0.00 0.00 36 15.6
20260904171013 90 270 4.0 9.0 0.00 0.00 0.00 36 15.5
20260904170013 90 270 5.0 9.0 0.00 0.00 0.00 36 15.6
20260904165013 91 247 4.0 11.0 0.00 0.00 0.00 36 15.6
20260904164013 91 270 5.0 12.0 0.00 0.00 0.00 35 15.5
20260904163013 92 270 6.0 12.0 0.00 0.00 0.00 35 15.6
20260904161013 93 270 5.0 11.0 0.00 0.00 0.00 34 15.6
20260904160013 93 270 6.0 10.0 0.00 0.00 0.00 33 15.6